Regional Weather Roundup
Issued by NWS Wilmington, NC

Home | Current Version | Previous Version | Text Only | Print | Product List | Glossary On
Versions: 1 2 3 4 5 6 7 8 9 10 11 12 13 14 15 16 17 18 19 20 21 22 23 24 25 26 27 28 29 30 31 32 33 34 35 36 37 38 39 40 41 42 43 44 45 46 47 48 49 50
000
ASUS42 KILM 032113
RWRILM
RWRILM
REGIONAL HOURLY WEATHER ROUNDUP
NATIONAL WEATHER SERVICE WILMINGTON NC
500 PM EDT TUE MAY 03 2016

NOTE: "FAIR" INDICATES FEW OR NO CLOUDS BELOW 12,000 FEET WITH NO
SIGNIFICANT WEATHER AND/OR OBSTRUCTIONS TO VISIBILITY.

...............WFO WILMINGTON COUNTY WARNING AREA...............

......COASTAL NC AND SC COUNTIES......

CITY           SKY/WX    TMP DP  RH WIND       PRES   REMARKS
WILMINGTON     CLOUDY    75  68  78 S9        29.77F
N MYRTLE BEACH TSTM      73  69  87 SE9       29.78S
MYRTLE BEACH   MOSUNNY   79  64  61 SW12      29.79S

......INLAND NC AND SC COUNTIES.......

CITY           SKY/WX    TMP DP  RH WIND       PRES   REMARKS
LUMBERTON      MOSUNNY   77  70  79 CALM      29.75F
ELIZABETHTOWN  DRIZZLE   77  67  72 S5        29.76S
WHITEVILLE     SUNNY     80  69  68 SE8       29.75F
FLORENCE       MOSUNNY   83  64  52 W13       29.74F
DARLINGTON     SUNNY     82  66  58 SW13G18   29.74F
KINGSTREE      FAIR      81  64  57 W7        29.76S
HARTSVILLE     PTSUNNY   79  63  57 SW7       29.74F
BENNETTSVILLE  FAIR      82  70  65 SW8       29.73F
CONWAY         FAIR      82  68  61 W5        29.76S
GEORGETOWN     PTSUNNY   82  63  51 W8G18     29.76S
MARION         FAIR      81  64  57 SW9       29.75S

....................REST OF NORTH CAROLINA......................

.........EASTERN NC.........

CITY           SKY/WX    TMP DP  RH WIND       PRES   REMARKS
CAPE HATTERAS  CLOUDY    71  66  84 SW13      29.80S
JACKSONVILLE   CLOUDY    78  68  71 S7        29.77S
MOREHEAD CITY  CLOUDY    71  66  84 S14       29.80R
KENANSVILLE    CLOUDY    75  66  72 CALM      29.77S
NEW BERN       MOSUNNY   75  66  73 S7        29.78S
ELIZABETH CITY CLOUDY    73  65  75 SW10      29.74F

.........CENTRAL NC.........

CITY           SKY/WX    TMP DP  RH WIND       PRES   REMARKS
RALEIGH DURHAM LGT RAIN  76  63  64 SW9       29.73F
ROCKY MOUNT    SUNNY     77  66  68 S8        29.73F
ROANOKE RAPIDS NOT AVBL
FAYETTEVILLE   PTSUNNY   77  67  71 S12       29.74S
HOFFMAN        SUNNY     81  64  55 SW10      29.73F

.........WESTERN NC.........

CITY           SKY/WX    TMP DP  RH WIND       PRES   REMARKS
CHARLOTTE      CLOUDY    71  62  73 W6        29.75F THUNDER
GREENSBORO     CLOUDY    69  59  70 SW9       29.73F
HICKORY        NOT AVBL
BOONE          NOT AVBL
ASHEVILLE      NOT AVBL

.....................REST OF SOUTH CAROLINA.....................

.........EASTERN SC.........

CITY           SKY/WX    TMP DP  RH WIND       PRES   REMARKS
CHARLESTON     MOSUNNY   86  65  49 SW10G20   29.76F
BEAUFORT MCAS  PTSUNNY   88  64  44 W10       29.78F
HILTON HEAD    MOSUNNY   84  63  48 SW7G16    29.80

.........CENTRAL SC.........

CITY           SKY/WX    TMP DP  RH WIND       PRES   REMARKS
COLUMBIA       CLOUDY    85  62  46 W13       29.75F
ORANGEBURG     LGT RAIN  80  66  62 W7        29.77F
SUMTER SHAW    MOSUNNY   80  67  63 SW10G20   29.74S

.........WESTERN SC.........

CITY           SKY/WX    TMP DP  RH WIND       PRES   REMARKS
GREENVILLE     NOT AVBL
ROCK HILL      SUNNY     80  60  50 W9G22     29.74S
ANDERSON       MOSUNNY   80  56  43 W17G28    29.78S
CLEMSON        NOT AVBL
GREENWOOD      PTSUNNY   80  60  50 W10       29.79S


...................COASTAL AND OFFSHORE REPORTS..................

................LOCAL PIERS AND NC RESERVE................


STATION/POSITION TIME  SKY/WX   TEMP    WIND        PRES    VSBY
                                AIR SEA DIR/SP/G
                 (UTC)          (F)     (DEG/KT/KT) (MB)    (MI)
JOHNY MRCER PIER 2000            70 70  180/ 10/ 12 1007.7F
NC RESRV MASNBRO NOT AVBL
OCEAN CREST PIER NOT AVBL
SPRINGMAID  PIER 2000            72 70  160/  9/ 10 1007.7F


................COASTAL AND OFFSHORE BUOYS................


STATION/POSITION TIME  SKY/WX   TEMP    WIND        PRES    VSBY
                                AIR SEA DIR/SP/G
                 (UTC)          (F)     (DEG/KT/KT) (MB)    (MI)
DIMNDSHOAL 41025 2050            72 72  200/ 17/ 19 1008.6F
WVE H/P(F/S)=  4/ 9 SWL H/P/D(F/S/D)=  2/140/ 9

CAPE LOOKOUT     2100            70     180/ 13/ 14 1008.7R
ONSLOW BAY 41036 NOT AVBL
ONSLOW BAY 41064 NOT AVBL
ONSLOW BAY 41159 2025               71                N/A
WVE H/P(F/S)=  5/ 7

5SE WRITBC 41038 NOT AVBL
MASNBO INL 41110 2006               70                N/A
WVE H/P(F/S)=  4/ 7

WILM HARBR 41108 2026               71                N/A
WVE H/P(F/S)=  5/ 7

27SE WRITB 41037 2008            72 73  200/ 10/ 14   N/A
FRYING PAN 41013 2000            74 74  210/  8/ 12 1008.6F
SUNST NRSH 41024 2008            69 71  160/  4/ 12 1006.5F
CAPRS NRSH 41029 2008            75 74  200/ 12/ 16 1007.8F
EDISTO     41004 2050            75 75  200/ 14/ 16 1008.2F
WVE H/P(F/S)=  5/ 7 SWL H/P/D(F/S/D)=  3/ 7



..........OFFSHORE BUOYS BEYOND 100 NM OFFSHORE...........
.....IN A TRIANGLE---HAT TO BERMUDA TO BAHAMAS TO HAT.....


STATION/POSITION TIME  SKY/WX   TEMP    WIND        PRES    VSBY
                                AIR SEA DIR/SP/G
                 (UTC)          (F)     (DEG/KT/KT) (MB)    (MI)
150E HAT   41001 NOT AVBL
W BERMUDA  41048 2050            71 71  170/ 10/ 14 1016.8F
WVE H/P(F/S)=  3/ 8 SWL H/P/D(F/S/D)=  2/ 90/ 8

ATLANTIC S 41049 NOT AVBL
E BAHAMAS  41046 2050            79 80  130/ 14/ 16 1016.2F
WVE H/P(F/S)=  4/ 9 SWL H/P/D(F/S/D)=  3/ 30/ 9

NE BAHAMAS 41047 2050            77 78  150/ 12/ 14 1016.0F
WVE H/P(F/S)=  4/10 SWL H/P/D(F/S/D)=  3/ 50/10

120E CANVRL41010 2020            78 79  210/ 10/ 12 1012.4F

END



USA.gov is the U.S. government's official web portal to all federal, state and local government web resources and services.